RH
28 27 26 25 25 24 23 23 22 21 21 20 20 19 19 19 19 19 20 20 21 21 21 21 21 21 21 22 22 23 23 24 25 27 28 29 30 32 33 34 34 35 35 36 36 36 37 37 39 40 42 44 46 47 48 49 49 48 48 48 47 46 46 46 46 46 47 47 48 49 50 50 51 52 53 53 54 54 55 55 54 54 54 53 53 52
27 26 25 25 24 24 23 22 22 21 20 20 20 19 19 19 20 20 21 21 21 22 22 22 22 22 22 23 23 23 24 25 26 28 30 31 32 33 34 35 36 36 36 37 37 38 40 41 44 46 48 49 50 51 51 50 50 49 48 47 47 46 46 46 47 48 49 50 51 51 52 53 54 55 55 55 56 56 56 56 56 56 56 55 55 54
26 25 25 24 24 23 23 22 21 20 20 20 20 20 20 20 20 21 21 21 22 22 23 23 23 23 23 23 24 24 25 26 28 29 31 32 33 35 35 36 36 37 38 39 41 43 45 48 50 51 52 52 52 52 51 50 49 49 48 47 47 48 48 48 49 50 51 52 53 54 55 56 57 57 57 57 57 57 57 57 57 57 56 56 56 55
25 25 24 24 23 23 22 21 20 20 20 20 20 20 21 21 22 22 23 23 24 24 24 24 24 24 24 24 24 25 26 28 29 31 32 34 35 35 36 37 38 39 41 44 46 48 51 52 53 54 53 53 52 50 50 49 48 48 48 48 49 49 50 51 52 53 54 56 56 57 58 59 59 59 59 59 59 59 59 58 58 57 57 56 56 56
25 24 24 23 23 22 21 21 20 20 20 21 21 22 22 22 23 24 25 25 25 25 24 24 24 24 24 25 26 27 28 29 31 33 34 35 36 37 38 40 42 44 47 50 51 53 54 54 54 53 52 51 50 48 48 47 47 48 48 49 50 51 52 53 54 56 57 58 59 60 60 61 61 61 61 61 61 61 60 59 59 58 57 57 56 56
25 24 23 23 22 21 21 21 21 21 21 22 22 23 24 24 25 26 26 26 25 25 24 24 24 25 25 26 27 28 29 31 32 34 35 37 38 40 41 44 47 50 53 54 55 55 54 54 53 51 50 49 48 47 46 47 47 48 49 50 51 52 53 55 56 57 58 59 60 61 61 61 62 62 62 61 61 61 60 60 59 59 58 57 57 56
24 23 22 22 22 21 21 21 21 22 22 23 24 25 26 26 26 26 26 25 25 24 25 25 25 26 27 28 29 30 32 33 35 36 38 40 42 44 47 50 53 55 56 56 55 54 53 52 50 49 48 47 46 46 46 47 48 49 50 51 52 53 54 56 57 58 59 60 60 61 61 61 61 61 61 61 61 61 61 60 60 60 59 58 58 57
23 22 22 22 22 22 21 22 23 24 25 26 27 27 27 27 26 26 25 24 24 25 26 26 27 28 29 30 32 33 35 36 38 40 42 45 47 50 52 55 56 57 57 56 55 53 52 50 48 47 46 46 46 46 47 48 49 50 51 52 54 55 56 57 57 58 59 59 60 60 61 61 61 61 61 61 61 61 61 61 61 60 60 59 59 59
23 23 22 23 23 22 22 23 25 27 28 28 29 28 28 26 25 25 25 25 26 26 27 29 30 31 32 33 35 37 39 41 44 46 48 50 52 54 56 57 57 57 56 55 54 52 50 48 46 45 45 45 46 47 48 49 50 51 53 54 55 56 56 57 57 58 58 59 59 60 60 61 61 61 61 61 61 61 61 61 61 61 61 60 60 60
23 23 23 23 23 24 24 25 26 28 29 29 30 29 28 26 25 25 26 27 28 29 30 31 33 34 35 37 40 43 45 47 50 52 53 55 56 57 58 58 58 57 55 54 52 51 49 47 46 45 45 46 47 48 49 51 52 53 54 55 56 56 57 57 58 58 59 59 60 60 61 61 61 61 61 61 61 61 61 61 61 61 61 61 61 61
23 23 23 23 25 26 27 28 28 28 29 28 28 28 28 28 28 28 28 29 31 32 33 34 36 38 40 42 45 49 51 53 54 55 56 57 57 57 57 57 56 55 54 53 51 50 48 47 46 45 46 47 48 49 51 53 54 54 55 56 57 58 58 59 59 60 61 61 62 62 62 62 62 61 61 61 61 61 61 61 61 62 62 63 63 63
25 25 25 25 26 27 28 29 29 29 28 27 27 28 28 30 31 31 32 32 34 35 36 38 40 43 46 49 52 54 56 56 57 57 57 58 58 57 57 56 56 55 54 53 52 50 49 47 47 47 47 49 50 52 53 55 55 56 57 58 59 60 61 61 62 63 63 64 64 64 63 63 62 62 61 61 61 61 62 62 63 63 64 64 65 66
26 26 26 27 27 28 28 28 27 27 28 29 29 30 31 32 33 34 35 36 37 39 41 43 46 49 53 56 57 58 58 58 58 58 58 58 58 58 57 56 56 56 55 55 53 52 50 49 49 49 50 51 53 55 57 58 58 59 60 61 61 62 63 64 65 65 65 65 65 64 63 63 62 62 61 61 62 62 63 64 65 65 66 66 66 67
27 27 28 29 29 28 27 27 28 29 31 32 33 33 34 35 36 38 39 40 42 44 47 49 52 55 58 60 60 60 59 59 58 58 59 59 59 58 58 57 57 57 57 56 55 54 52 52 52 52 53 56 58 60 61 61 61 62 63 63 64 65 66 66 66 66 66 65 63 62 61 61 60 60 60 62 63 64 65 66 66 66 66 66 66 66
29 29 29 29 28 28 28 30 31 32 33 34 36 36 37 38 40 41 43 45 48 50 53 55 57 59 60 61 61 61 60 60 59 59 59 59 59 59 59 59 58 58 58 58 57 56 55 55 56 56 58 60 62 64 64 64 64 64 65 66 67 67 68 68 67 66 64 62 61 60 59 59 59 60 62 64 65 67 67 67 66 66 65 65 64 64
29 30 29 29 29 29 31 33 34 35 36 37 38 39 40 42 44 46 49 52 54 56 58 59 60 60 61 61 62 62 62 61 60 60 60 60 61 61 61 61 60 60 60 59 58 57 57 57 58 59 61 64 65 66 67 66 66 66 66 68 69 69 69 67 65 63 61 60 59 58 58 59 61 63 66 68 70 70 69 68 68 67 66 64 64 63
30 30 30 30 31 33 35 36 37 39 39 40 41 43 44 47 49 52 56 58 60 61 62 62 61 61 60 61 62 63 63 63 62 62 61 62 63 64 64 63 62 61 61 60 59 58 57 58 59 61 64 66 68 68 68 67 67 68 69 69 70 69 68 65 62 59 58 57 57 58 59 61 64 68 71 72 72 71 70 70 69 68 67 65 64 63
31 31 32 33 35 36 38 39 40 41 43 44 45 46 49 52 55 58 61 63 64 64 63 63 63 62 62 63 63 64 65 65 65 64 63 64 64 64 65 64 63 62 61 60 59 58 58 59 60 63 65 68 69 70 69 69 69 70 70 70 69 67 64 60 58 56 56 56 57 58 61 64 68 72 74 73 73 72 72 71 70 69 67 66 65 64
32 34 35 36 38 40 42 43 44 45 46 47 49 51 54 57 60 63 65 65 66 65 65 64 64 64 64 64 65 65 67 67 66 65 65 64 64 64 64 63 62 61 60 59 58 58 59 59 61 63 67 70 71 72 70 70 70 70 71 69 66 62 58 56 55 55 56 56 58 61 64 68 72 74 75 74 73 72 72 72 71 69 68 68 67 67
35 37 39 40 42 43 45 46 47 48 49 51 54 57 59 62 64 65 67 67 66 66 66 65 65 65 66 66 66 67 68 68 67 66 65 64 64 63 63 62 61 60 58 57 57 57 58 60 62 64 68 71 72 72 71 71 71 70 69 65 61 58 55 55 56 56 57 59 62 65 69 72 75 76 75 73 73 73 72 72 71 70 70 70 70 70
38 40 42 44 46 47 47 48 50 51 53 56 59 61 63 65 66 67 67 67 67 67 67 67 67 66 67 67 67 67 68 68 67 67 65 63 62 60 60 60 59 58 56 56 56 57 58 59 62 65 69 72 73 73 72 72 71 69 65 61 58 57 56 57 57 58 60 62 66 70 73 75 76 76 75 74 73 73 73 72 71 71 71 72 72 72
42 43 45 48 49 50 51 52 53 55 58 60 62 64 65 66 67 68 68 68 68 67 67 67 67 67 67 67 66 65 66 67 67 66 64 62 59 57 56 57 57 56 54 54 54 55 56 58 61 64 69 72 73 73 73 72 69 66 62 60 59 58 59 59 60 61 63 67 71 74 77 78 78 78 78 76 76 75 75 74 74 74 74 75 75 75
46 48 50 51 53 54 55 56 57 59 60 62 63 64 66 67 68 68 69 68 68 68 67 67 66 66 65 64 63 62 63 64 65 65 64 61 57 55 54 55 55 53 52 52 52 53 54 56 59 63 68 72 74 74 73 71 67 63 60 59 59 60 61 61 62 64 66 69 72 75 78 79 80 80 80 79 78 78 77 77 78 78 78 77 77 77
50 52 54 55 56 58 59 59 60 61 61 62 64 65 67 68 69 69 69 68 68 68 67 66 65 63 61 60 59 58 59 61 62 63 63 60 56 53 52 53 53 51 50 50 50 51 52 54 58 62 67 71 74 74 72 68 64 61 59 60 61 61 62 63 64 65 67 68 69 71 73 75 76 76 77 77 77 77 77 78 78 79 78 78 78 77
54 56 57 59 60 60 61 61 62 62 63 64 66 68 69 69 69 68 68 68 68 67 66 64 62 60 58 57 56 55 55 58 59 61 61 58 55 52 50 52 52 50 48 48 48 49 49 52 55 60 66 71 73 73 71 66 62 60 59 60 61 62 63 64 65 66 66 67 67 68 69 69 69 70 70 70 71 71 71 72 73 73 74 74 74 74
58 59 61 61 62 62 62 62 63 63 65 66 68 69 69 68 68 67 67 66 66 65 63 60 58 56 55 54 52 52 52 54 55 57 58 56 53 50 49 50 51 50 47 46 46 46 48 50 54 59 66 70 72 71 68 63 60 59 59 60 60 61 62 63 64 65 65 66 67 68 68 68 68 68 68 69 69 70 71 73 74 75 75 74 74 73
61 62 63 63 63 62 62 63 64 65 66 67 68 68 68 67 67 65 65 64 62 61 59 57 55 54 53 51 50 49 49 50 51 53 55 54 52 50 49 50 50 49 47 45 44 45 46 49 54 59 66 70 70 69 64 61 59 58 58 59 59 60 61 63 63 64 64 65 66 66 67 67 68 68 69 70 72 73 75 77 79 80 80 79 79 78
63 63 63 62 62 62 62 63 64 65 66 66 66 67 66 66 65 63 61 60 58 56 55 54 53 52 51 49 48 47 46 47 48 50 53 52 51 50 49 50 49 49 47 45 43 43 45 48 53 59 66 69 69 66 61 58 57 57 58 58 59 60 61 62 63 63 63 64 64 64 65 65 66 67 68 69 71 74 76 79 81 82 82 82 82 81
62 62 61 61 61 61 61 61 62 62 63 64 64 64 64 62 61 59 57 55 54 52 52 51 51 50 50 48 47 46 45 45 46 49 52 51 51 50 49 49 49 48 47 45 43 42 43 47 52 59 66 68 66 62 57 56 56 56 57 58 58 60 61 62 62 62 62 62 63 63 64 64 65 66 67 69 72 74 77 79 80 81 81 81 81 81
59 59 58 58 58 58 59 59 59 59 60 60 61 61 60 58 56 54 52 51 50 50 50 49 50 50 49 48 47 45 44 44 46 49 52 51 51 50 49 49 48 48 47 45 43 42 43 46 52 59 66 67 64 59 55 55 55 56 57 57 58 59 60 61 61 61 61 61 62 63 64 66 67 68 70 72 74 76 78 79 79 80 80 80 80 80
55 55 55 55 55 56 56 56 57 57 57 57 57 57 56 54 52 51 50 49 49 49 49 49 49 49 49 48 47 46 45 44 46 49 52 51 50 49 49 48 48 48 47 47 45 44 45 49 54 60 65 65 61 57 54 54 55 56 57 58 59 60 60 61 61 61 61 61 62 64 66 67 69 71 72 74 76 78 78 78 79 79 79 79 80 81
52 52 52 52 53 54 55 55 55 55 55 55 54 54 52 51 50 49 49 49 50 50 50 50 50 50 49 48 47 47 46 45 47 49 52 51 50 49 49 49 49 48 48 48 47 47 50 55 60 63 65 63 59 54 53 54 55 56 57 58 59 60 61 62 62 62 61 62 63 65 67 69 71 72 74 76 77 78 79 79 79 79 78 78 79 80
49 50 50 51 52 53 54 54 54 54 53 53 53 52 51 50 50 50 51 51 51 52 52 52 51 50 49 48 48 48 48 47 49 51 52 52 51 50 50 49 49 49 48 48 48 50 55 62 66 67 66 61 56 53 52 53 55 56 57 58 60 61 62 63 63 63 62 63 64 66 68 70 72 74 76 77 78 79 80 80 80 79 78 77 77 77
48 49 50 51 51 52 53 53 53 53 53 53 52 52 52 52 52 52 53 54 54 54 54 53 51 50 49 48 48 48 49 48 50 52 53 52 51 51 51 50 50 49 48 48 49 53 59 67 71 71 67 60 55 53 53 54 55 56 57 58 60 61 63 64 64 63 63 63 65 66 68 70 72 74 76 78 79 80 80 81 80 80 79 78 77 76
49 49 50 50 51 51 51 52 52 52 53 54 54 54 54 55 55 55 56 56 56 56 55 53 51 50 49 49 49 49 50 49 51 52 53 52 52 51 51 51 50 50 49 49 51 56 64 71 73 73 68 61 56 53 53 54 55 56 57 59 60 62 64 64 64 64 63 64 65 67 68 69 72 74 77 78 80 81 81 81 81 80 80 79 79 78
49 49 50 50 50 50 50 51 52 54 55 56 57 57 57 58 58 58 58 58 57 56 55 53 51 50 49 49 50 50 51 51 52 53 54 53 52 52 52 51 51 51 50 51 54 60 68 74 75 73 67 61 57 54 54 55 55 57 58 59 62 64 65 65 65 64 64 65 66 67 68 70 72 75 77 79 80 81 81 81 81 81 81 81 81 80
49 49 49 49 49 50 50 52 54 56 58 59 60 60 61 61 60 60 59 58 57 56 54 53 52 51 50 51 51 51 52 52 53 54 54 54 53 53 53 52 51 51 50 52 57 64 72 76 76 72 66 61 58 56 56 56 57 58 59 61 64 66 68 67 66 66 66 66 67 68 69 71 73 76 78 80 81 81 81 81 82 82 82 82 82 81
49 49 49 49 49 50 51 54 56 58 61 62 63 63 63 62 62 61 60 59 58 56 55 53 53 52 52 52 52 53 53 53 54 54 55 55 54 53 53 52 51 51 52 55 60 67 75 77 75 71 65 61 58 58 58 59 59 60 61 64 67 69 70 69 68 68 68 68 69 69 70 72 75 77 80 80 80 80 80 81 81 82 82 82 82 81
48 48 48 49 50 52 54 57 59 61 63 64 64 64 64 64 63 62 61 60 59 57 56 55 54 54 53 54 54 54 54 54 54 55 55 56 55 54 53 52 51 51 53 57 63 70 76 77 75 70 64 61 60 59 60 60 61 62 64 66 68 71 72 71 70 70 69 69 70 70 71 74 77 79 81 80 80 80 79 80 80 81 81 81 81 80
48 49 49 51 53 56 59 61 63 64 64 64 65 65 65 64 63 62 61 60 59 57 56 55 55 55 55 55 55 55 55 55 55 56 56 56 56 56 54 53 51 51 53 58 65 71 76 77 73 68 63 61 61 61 61 62 63 65 66 67 69 71 72 72 72 71 71 71 72 73 74 76 78 80 81 80 80 79 79 80 80 81 81 81 81 80
49 51 52 55 58 60 63 64 65 65 65 64 64 64 64 64 63 62 60 59 58 56 55 55 55 55 56 56 57 57 57 56 56 56 56 56 56 56 55 52 50 49 52 59 66 72 76 75 72 67 63 62 61 62 63 64 66 68 69 69 70 71 72 72 72 72 72 73 73 74 76 77 79 80 81 80 80 80 81 81 81 81 81 81 81 81
52 54 56 59 61 64 65 66 66 66 65 64 64 63 63 62 61 60 58 57 56 55 55 55 56 56 57 57 56 56 56 56 57 57 57 57 57 56 54 51 50 50 52 60 67 73 76 74 70 66 63 62 62 63 64 66 68 70 72 72 71 71 72 73 73 74 74 74 74 75 77 78 79 80 80 81 81 81 82 82 82 82 82 82 82 82
55 57 59 61 63 65 66 66 66 65 65 64 63 62 60 59 58 57 56 55 55 55 56 57 58 58 58 57 57 56 56 56 56 57 58 58 58 57 55 53 51 52 55 62 69 74 76 74 70 66 62 63 63 65 66 68 70 72 74 75 75 74 73 73 73 73 74 74 75 76 77 79 80 80 81 82 82 82 82 82 82 82 83 83 83 82
57 59 61 62 63 64 65 65 65 64 64 62 61 60 59 58 57 56 55 56 56 57 58 59 59 58 59 58 58 57 56 55 56 57 58 59 59 58 57 54 53 54 58 64 70 74 75 73 70 66 63 63 65 67 68 70 71 73 75 77 77 76 74 73 72 72 71 72 74 76 78 79 80 81 82 82 82 82 82 83 83 83 83 83 83 82
58 59 61 62 63 63 64 64 63 63 62 61 60 59 58 57 57 57 57 58 58 59 60 60 60 60 60 59 59 58 57 56 56 56 57 58 59 59 58 56 56 57 61 66 71 74 75 73 69 65 62 63 65 68 70 71 73 74 76 78 78 77 76 73 71 70 70 72 74 77 79 80 82 82 82 82 82 82 82 83 83 83 83 83 82 81
59 60 61 62 62 63 63 63 63 62 62 61 60 60 60 59 59 60 60 60 61 62 62 62 62 62 62 61 60 59 58 57 57 56 56 57 58 59 59 58 58 60 63 68 71 74 74 72 69 66 63 64 65 68 71 72 73 75 76 77 77 76 74 72 70 70 70 73 75 78 80 82 83 83 83 82 81 81 82 82 82 82 81 81 81 81
61 62 62 62 63 63 63 64 64 64 63 63 63 63 63 63 63 63 63 63 63 64 64 64 64 64 64 63 61 60 59 58 57 57 57 57 59 60 61 61 61 62 65 69 72 73 74 72 69 66 64 65 66 67 70 72 73 75 75 75 75 74 72 71 70 70 72 75 77 80 81 83 83 83 82 82 81 81 82 81 81 81 81 81 81 81
63 63 63 64 64 64 65 66 66 66 67 67 67 67 67 66 66 66 66 66 65 66 66 66 66 65 65 64 63 61 60 59 58 57 57 58 60 62 63 64 65 66 68 70 72 73 73 72 69 66 65 65 66 67 69 71 73 74 74 74 74 73 71 70 70 71 74 77 80 81 83 83 83 83 82 81 81 81 82 81 81 81 80 81 81 81
64 64 64 65 65 66 67 68 69 69 69 69 69 69 69 69 68 68 68 67 67 67 68 67 67 67 66 65 64 62 61 60 59 59 59 59 61 63 65 67 68 70 71 72 73 73 73 71 69 66 65 66 67 68 69 70 72 73 74 74 74 73 71 70 71 73 76 79 81 82 83 83 83 82 81 80 80 81 82 82 81 81 80 80 80 80
65 65 65 65 66 67 68 70 70 71 71 71 71 70 70 70 70 69 69 69 69 69 69 69 68 67 67 66 65 63 63 62 61 60 59 60 62 64 67 69 71 73 74 74 73 73 73 71 68 65 64 65 67 68 69 70 70 72 73 74 74 73 71 71 72 75 78 81 82 83 84 83 82 81 79 79 80 81 82 82 82 81 80 80 80 80
65 65 66 66 67 68 70 71 71 72 72 72 71 71 70 70 70 70 70 71 71 70 70 70 69 69 67 66 66 65 64 63 62 61 60 60 62 65 68 71 73 75 76 76 75 75 73 71 68 65 63 64 66 68 69 69 70 70 72 73 74 73 72 72 74 77 80 82 82 83 83 82 82 81 80 80 81 82 82 82 82 81 80 80 80 81